|
NORAD ID: 22079 Int'l Code: 1992-052D
Perigee: 1,299.1 km
Apogee: 1,415.8 km
Inclination: 66.1 °
Period: 112.7 minutes
Semi major axis: 7728 km
Launch date: August 10, 1992
Source: France (FR)
Note: This is a ROCKET BODY
Two Line Element Set (TLE):
1 22079U 92052D 13143.14817354 .00000011 00000-0 31967-3 0 7026
2 22079 066.0679 075.8505 0075492 302.7838 186.0897 12.77803285969796
Source:
NASA's NSSDC Master Catalog entry for ARIANE 42P R/B
|